| time (UTC) | temp C | wind direction | speed KPH | gust KPH | rain 1hr cm | rain 24hr cm | rain mn cm | humidity % | barometer mb |
| 20260506201232 | 11 | 59 | 3.2 | 6.4 | 0.00 | 0.10 | 0.10 | 88 | 1006.6 |
| 20260506200729 | 11 | 83 | 1.6 | 6.4 | 0.00 | 0.10 | 0.10 | 87 | 1006.6 |
| 20260506200225 | 11 | 57 | 3.2 | 4.8 | 0.00 | 0.10 | 0.10 | 87 | 1006.5 |
| 20260506195721 | 11 | 42 | 4.8 | 6.4 | 0.00 | 0.10 | 0.10 | 87 | 1006.3 |
| 20260506195218 | 11 | 68 | 3.2 | 6.4 | 0.00 | 0.10 | 0.10 | 87 | 1006.2 |
| 20260506194715 | 11 | 61 | 4.8 | 6.4 | 0.00 | 0.10 | 0.10 | 87 | 1006.5 |
| 20260506194212 | 11 | 24 | 1.6 | 6.4 | 0.00 | 0.10 | 0.10 | 86 | 1006.4 |
| 20260506193710 | 11 | 29 | 6.4 | 6.4 | 0.00 | 0.10 | 0.10 | 86 | 1006.3 |
| 20260506193201 | 11 | 341 | 4.8 | 11.3 | 0.00 | 0.10 | 0.10 | 86 | 1006.3 |
| 20260506192657 | 12 | 295 | 11.3 | 14.5 | 0.00 | 0.10 | 0.10 | 86 | 1006.5 |
| 20260506192154 | 12 | 306 | 6.4 | 14.5 | 0.00 | 0.10 | 0.10 | 86 | 1006.4 |
| 20260506191651 | 12 | 342 | 6.4 | 9.7 | 0.00 | 0.10 | 0.10 | 86 | 1005.8 |
| 20260506191147 | 12 | 68 | 1.6 | 6.4 | 0.00 | 0.10 | 0.10 | 86 | 1005.6 |
| 20260506190644 | 12 | 69 | 3.2 | 9.7 | 0.00 | 0.10 | 0.10 | 85 | 1005.7 |
| 20260506190141 | 12 | 94 | 1.6 | 3.2 | 0.00 | 0.10 | 0.10 | 85 | 1005.4 |
| 20260506185638 | 12 | 103 | 11.3 | 17.7 | 0.00 | 0.10 | 0.10 | 86 | 1005.5 |
| 20260506185134 | 12 | 81 | 4.8 | 9.7 | 0.00 | 0.10 | 0.10 | 86 | 1005.3 |
| 20260506184632 | 12 | 91 | 3.2 | 9.7 | 0.00 | 0.10 | 0.10 | 85 | 1005.3 |
| 20260506184129 | 12 | 88 | 1.6 | 12.9 | 0.00 | 0.10 | 0.10 | 85 | 1005.3 |
| 20260506183625 | 12 | 87 | 4.8 | 11.3 | 0.00 | 0.10 | 0.10 | 85 | 1005.2 |
| 20260506183121 | 12 | 86 | 8.0 | 9.7 | 0.00 | 0.10 | 0.10 | 85 | 1005.1 |
| 20260506182619 | 12 | 68 | 9.7 | 14.5 | 0.00 | 0.10 | 0.10 | 85 | 1005.3 |
| 20260506182116 | 12 | 90 | 3.2 | 6.4 | 0.00 | 0.10 | 0.10 | 85 | 1005.2 |
| 20260506181614 | 12 | 76 | 8.0 | 12.9 | 0.00 | 0.10 | 0.10 | 85 | 1005.1 |
| 20260506181111 | 12 | 56 | 4.8 | 12.9 | 0.00 | 0.10 | 0.10 | 85 | 1005.0 |
| 20260506180607 | 12 | 49 | 4.8 | 11.3 | 0.00 | 0.10 | 0.10 | 84 | 1005.2 |
| 20260506180104 | 12 | 80 | 4.8 | 11.3 | 0.00 | 0.10 | 0.10 | 84 | 1005.3 |
| 20260506175600 | 12 | 85 | 3.2 | 14.5 | 0.00 | 0.10 | 0.10 | 83 | 1005.3 |
| 20260506175056 | 12 | 82 | 11.3 | 14.5 | 0.00 | 0.10 | 0.10 | 83 | 1005.4 |
| 20260506174555 | 12 | 55 | 3.2 | 14.5 | 0.00 | 0.10 | 0.10 | 83 | 1005.2 |
| 20260506174051 | 12 | 53 | 4.8 | 11.3 | 0.00 | 0.10 | 0.10 | 82 | 1005.3 |
| 20260506173549 | 12 | 49 | 3.2 | 11.3 | 0.00 | 0.10 | 0.10 | 82 | 1005.4 |
| 20260506173045 | 12 | 76 | 8.0 | 12.9 | 0.00 | 0.10 | 0.10 | 82 | 1005.3 |
| 20260506172543 | 12 | 69 | 3.2 | 12.9 | 0.00 | 0.10 | 0.10 | 82 | 1005.2 |
| 20260506172039 | 12 | 85 | 4.8 | 12.9 | 0.00 | 0.10 | 0.10 | 81 | 1005.2 |
| 20260506171537 | 13 | 70 | 11.3 | 14.5 | 0.00 | 0.10 | 0.10 | 81 | 1005.3 |
| 20260506171035 | 13 | 88 | 8.0 | 14.5 | 0.00 | 0.10 | 0.10 | 81 | 1005.3 |
| 20260506170532 | 13 | 79 | 3.2 | 6.4 | 0.00 | 0.10 | 0.10 | 81 | 1005.2 |
| 20260506170029 | 13 | 87 | 6.4 | 12.9 | 0.00 | 0.10 | 0.10 | 81 | 1005.2 |
| 20260506165527 | 13 | 70 | 4.8 | 11.3 | 0.00 | 0.10 | 0.10 | 81 | 1005.4 |
| 20260506165023 | 13 | 67 | 6.4 | 17.7 | 0.00 | 0.10 | 0.10 | 80 | 1005.2 |
| 20260506164520 | 13 | 56 | 3.2 | 14.5 | 0.00 | 0.10 | 0.10 | 80 | 1005.3 |
| 20260506164018 | 13 | 78 | 11.3 | 17.7 | 0.00 | 0.10 | 0.10 | 79 | 1005.3 |
| 20260506163513 | 13 | 53 | 9.7 | 22.5 | 0.00 | 0.10 | 0.10 | 78 | 1005.4 |
| 20260506163009 | 13 | 76 | 6.4 | 27.4 | 0.00 | 0.10 | 0.10 | 79 | 1005.5 |
| 20260506162506 | 13 | 77 | 3.2 | 20.9 | 0.00 | 0.10 | 0.10 | 79 | 1005.4 |
| 20260506162003 | 13 | 38 | 9.7 | 20.9 | 0.00 | 0.10 | 0.10 | 79 | 1005.2 |
| 20260506161500 | 13 | 55 | 3.2 | 24.1 | 0.00 | 0.10 | 0.10 | 78 | 1005.5 |
| 20260506160958 | 14 | 63 | 17.7 | 20.9 | 0.00 | 0.10 | 0.10 | 78 | 1005.3 |
| 20260506160455 | 14 | 49 | 8.0 | 16.1 | 0.00 | 0.10 | 0.10 | 78 | 1005.6 |
| 20260506155952 | 13 | 66 | 12.9 | 16.1 | 0.00 | 0.10 | 0.10 | 79 | 1005.6 |
| 20260506155450 | 13 | 69 | 9.7 | 20.9 | 0.00 | 0.10 | 0.10 | 78 | 1005.6 |
| 20260506153616 | 14 | 46 | 11.3 | 16.1 | 0.00 | 0.10 | 0.10 | 78 | 1005.8 |
| 20260506153114 | 14 | 22 | 11.3 | 16.1 | 0.00 | 0.10 | 0.10 | 78 | 1005.9 |
| 20260506152611 | 14 | 56 | 9.7 | 16.1 | 0.00 | 0.10 | 0.10 | 80 | 1006.0 |
| 20260506152108 | 14 | 67 | 6.4 | 12.9 | 0.00 | 0.10 | 0.10 | 80 | 1006.0 |
| 20260506151606 | 14 | 56 | 3.2 | 9.7 | 0.00 | 0.10 | 0.10 | 81 | 1006.1 |
| 20260506151103 | 14 | 60 | 4.8 | 11.3 | 0.00 | 0.10 | 0.10 | 81 | 1005.9 |
| 20260506150600 | 14 | 23 | 6.4 | 11.3 | 0.18 | 0.10 | 0.10 | 81 | 1006.2 |
| 20260506150057 | 15 | 47 | 3.2 | 14.5 | 0.18 | 0.10 | 0.10 | 80 | 1006.2 |
| 20260506145553 | 15 | 72 | 6.4 | 6.4 | 0.13 | 0.08 | 0.08 | 80 | 1006.2 |
| 20260506145051 | 15 | 66 | 3.2 | 6.4 | 0.30 | 0.08 | 0.08 | 78 | 1006.5 |
| 20260506144547 | 16 | 82 | 3.2 | 6.4 | 0.30 | 0.05 | 0.05 | 75 | 1006.8 |
| 20260506144044 | 16 | 86 | 4.8 | 9.7 | 0.13 | 0.03 | 0.03 | 70 | 1006.8 |
| 20260506143542 | 17 | 61 | 3.2 | 4.8 | 0.00 | 0.00 | 0.00 | 64 | 1007.2 |
| 20260506143041 | 17 | 79 | 0.0 | 3.2 | 0.00 | 0.00 | 0.00 | 63 | 1007.2 |
| 20260506142538 | 17 | 95 | 0.0 | 0.0 | 0.00 | 0.00 | 0.00 | 63 | 1006.9 |
| 20260506142036 | 17 | 80 | 3.2 | 9.7 | 0.00 | 0.00 | 0.00 | 62 | 1006.4 |
| 20260506141533 | 17 | 74 | 12.9 | 16.1 | 0.00 | 0.00 | 0.00 | 61 | 1006.1 |
| 20260506141032 | 17 | 53 | 6.4 | 11.3 | 0.00 | 0.00 | 0.00 | 61 | 1006.2 |
| 20260506140529 | 18 | 85 | 8.0 | 16.1 | 0.00 | 0.00 | 0.00 | 61 | 1006.1 |
| 20260506140026 | 18 | 81 | 3.2 | 14.5 | 0.00 | 0.00 | 0.00 | 61 | 1006.1 |
| 20260506135523 | 18 | 90 | 4.8 | 12.9 | 0.00 | 0.00 | 0.00 | 61 | 1006.2 |
| 20260506135019 | 18 | 88 | 8.0 | 16.1 | 0.00 | 0.00 | 0.00 | 60 | 1006.2 |
| 20260506134515 | 18 | 74 | 9.7 | 11.3 | 0.00 | 0.00 | 0.00 | 60 | 1006.4 |
| 20260506134012 | 18 | 85 | 12.9 | 20.9 | 0.00 | 0.00 | 0.00 | 58 | 1006.3 |
| 20260506133509 | 19 | 53 | 11.3 | 20.9 | 0.00 | 0.00 | 0.00 | 58 | 1006.2 |
| 20260506133006 | 19 | 84 | 6.4 | 14.5 | 0.00 | 0.00 | 0.00 | 59 | 1006.4 |
| 20260506132503 | 19 | 52 | 8.0 | 12.9 | 0.00 | 0.00 | 0.00 | 60 | 1006.7 |
| 20260506132000 | 18 | 75 | 9.7 | 14.5 | 0.00 | 0.00 | 0.00 | 59 | 1006.6 |
| 20260506131457 | 19 | 96 | 11.3 | 16.1 | 0.00 | 0.00 | 0.00 | 59 | 1006.8 |
| 20260506130953 | 18 | 86 | 16.1 | 24.1 | 0.00 | 0.00 | 0.00 | 58 | 1007.0 |
| 20260506130450 | 19 | 92 | 9.7 | 17.7 | 0.00 | 0.00 | 0.00 | 58 | 1006.9 |
| 20260506125948 | 19 | 71 | 8.0 | 14.5 | 0.00 | 0.00 | 0.00 | 58 | 1007.1 |
| 20260506125446 | 19 | 63 | 4.8 | 16.1 | 0.00 | 0.00 | 0.00 | 56 | 1007.1 |
| 20260506124944 | 18 | 85 | 12.9 | 17.7 | 0.00 | 0.00 | 0.00 | 58 | 1007.1 |
| 20260506124441 | 18 | 102 | 9.7 | 14.5 | 0.00 | 0.00 | 0.00 | 60 | 1007.1 |
| 20260506123939 | 18 | 76 | 9.7 | 16.1 | 0.00 | 0.00 | 0.00 | 59 | 1007.2 |
| 20260506123437 | 18 | 84 | 9.7 | 22.5 | 0.00 | 0.00 | 0.00 | 58 | 1007.2 |
| 20260506122934 | 18 | 93 | 12.9 | 16.1 | 0.00 | 0.00 | 0.00 | 58 | 1007.5 |
| 20260506122430 | 18 | 91 | 11.3 | 17.7 | 0.00 | 0.00 | 0.00 | 57 | 1007.3 |
| 20260506121929 | 18 | 83 | 6.4 | 12.9 | 0.00 | 0.00 | 0.00 | 59 | 1007.4 |
| 20260506121426 | 18 | 94 | 4.8 | 17.7 | 0.00 | 0.00 | 0.00 | 59 | 1007.2 |
| 20260506120923 | 18 | 80 | 14.5 | 20.9 | 0.00 | 0.00 | 0.00 | 56 | 1007.7 |
| 20260506120420 | 18 | 82 | 9.7 | 17.7 | 0.00 | 0.00 | 0.00 | 56 | 1007.5 |
| 20260506115917 | 18 | 85 | 8.0 | 22.5 | 0.00 | 0.00 | 0.00 | 59 | 1007.4 |
| 20260506115415 | 18 | 86 | 14.5 | 22.5 | 0.00 | 0.00 | 0.00 | 56 | 1007.7 |
| 20260506114913 | 18 | 58 | 12.9 | 29.0 | 0.00 | 0.00 | 0.00 | 55 | 1007.5 |
| 20260506114410 | 18 | 92 | 9.7 | 12.9 | 0.00 | 0.00 | 0.00 | 58 | 1007.5 |
| 20260506113909 | 18 | 79 | 6.4 | 14.5 | 0.00 | 0.00 | 0.00 | 60 | 1007.7 |
| 20260506113406 | 17 | 66 | 6.4 | 22.5 | 0.00 | 0.00 | 0.00 | 59 | 1007.7 |
| 20260506112903 | 17 | 28 | 8.0 | 14.5 | 0.00 | 0.00 | 0.00 | 60 | 1007.8 |
| 20260506112400 | 17 | 101 | 8.0 | 20.9 | 0.00 | 0.00 | 0.00 | 61 | 1008.0 |
| 20260506111857 | 17 | 90 | 6.4 | 24.1 | 0.00 | 0.00 | 0.00 | 57 | 1008.0 |
| 20260506111355 | 17 | 69 | 12.9 | 17.7 | 0.00 | 0.00 | 0.00 | 56 | 1007.9 |
| 20260506110852 | 17 | 96 | 6.4 | 20.9 | 0.00 | 0.00 | 0.00 | 60 | 1008.1 |
| 20260506110350 | 17 | 85 | 6.4 | 22.5 | 0.00 | 0.00 | 0.00 | 59 | 1008.0 |
| 20260506105847 | 17 | 74 | 4.8 | 16.1 | 0.00 | 0.00 | 0.00 | 61 | 1008.3 |
| 20260506105343 | 17 | 83 | 12.9 | 22.5 | 0.00 | 0.00 | 0.00 | 58 | 1008.2 |
| 20260506104840 | 17 | 81 | 17.7 | 24.1 | 0.00 | 0.00 | 0.00 | 57 | 1008.1 |
| 20260506104338 | 17 | 91 | 11.3 | 16.1 | 0.00 | 0.00 | 0.00 | 60 | 1008.2 |
| 20260506103836 | 16 | 118 | 9.7 | 16.1 | 0.00 | 0.00 | 0.00 | 60 | 1008.4 |
| 20260506103333 | 16 | 86 | 6.4 | 16.1 | 0.00 | 0.00 | 0.00 | 60 | 1008.4 |
| 20260506102830 | 16 | 47 | 4.8 | 14.5 | 0.00 | 0.00 | 0.00 | 60 | 1008.5 |
| 20260506102328 | 17 | 87 | 9.7 | 14.5 | 0.00 | 0.00 | 0.00 | 58 | 1008.5 |
| 20260506101825 | 16 | 47 | 8.0 | 11.3 | 0.00 | 0.00 | 0.00 | 61 | 1008.5 |
| 20260506101321 | 16 | 65 | 8.0 | 16.1 | 0.00 | 0.00 | 0.00 | 60 | 1008.8 |
| 20260506100819 | 16 | 82 | 3.2 | 12.9 | 0.00 | 0.00 | 0.00 | 63 | 1008.8 |
| 20260506100317 | 16 | 60 | 6.4 | 17.7 | 0.00 | 0.00 | 0.00 | 63 | 1008.7 |
| 20260506095815 | 15 | 67 | 6.4 | 12.9 | 0.00 | 0.00 | 0.00 | 63 | 1008.6 |
| 20260506095312 | 15 | 30 | 6.4 | 20.9 | 0.00 | 0.00 | 0.00 | 61 | 1008.5 |
| 20260506094809 | 15 | 67 | 14.5 | 20.9 | 0.00 | 0.00 | 0.00 | 62 | 1008.6 |
| 20260506094307 | 15 | 75 | 8.0 | 22.5 | 0.00 | 0.00 | 0.00 | 61 | 1008.5 |
| 20260506093805 | 15 | 65 | 8.0 | 14.5 | 0.00 | 0.00 | 0.00 | 64 | 1008.5 |
| 20260506093302 | 15 | 72 | 9.7 | 22.5 | 0.00 | 0.00 | 0.00 | 62 | 1008.6 |
| 20260506092800 | 15 | 85 | 6.4 | 20.9 | 0.00 | 0.00 | 0.00 | 63 | 1008.5 |
| 20260506092257 | 15 | 38 | 14.5 | 17.7 | 0.00 | 0.00 | 0.00 | 62 | 1008.6 |
| 20260506091754 | 15 | 72 | 14.5 | 20.9 | 0.00 | 0.00 | 0.00 | 63 | 1008.3 |
| 20260506091252 | 14 | 80 | 8.0 | 14.5 | 0.00 | 0.00 | 0.00 | 65 | 1008.5 |
| 20260506090750 | 14 | 50 | 12.9 | 25.7 | 0.00 | 0.00 | 0.00 | 63 | 1008.7 |
| 20260506090247 | 15 | 73 | 9.7 | 17.7 | 0.00 | 0.00 | 0.00 | 64 | 1008.6 |
| 20260506085743 | 14 | 51 | 8.0 | 24.1 | 0.00 | 0.00 | 0.00 | 64 | 1008.6 |
| 20260506085240 | 15 | 48 | 14.5 | 17.7 | 0.00 | 0.00 | 0.00 | 65 | 1008.6 |
| 20260506084736 | 14 | 41 | 4.8 | 14.5 | 0.00 | 0.00 | 0.00 | 66 | 1008.8 |
| 20260506084233 | 14 | 74 | 8.0 | 20.9 | 0.00 | 0.00 | 0.00 | 65 | 1008.8 |
| 20260506083730 | 14 | 64 | 4.8 | 16.1 | 0.00 | 0.00 | 0.00 | 66 | 1008.8 |
| 20260506083228 | 14 | 64 | 9.7 | 16.1 | 0.00 | 0.00 | 0.00 | 65 | 1008.8 |
| 20260506082725 | 14 | 56 | 3.2 | 16.1 | 0.00 | 0.00 | 0.00 | 68 | 1008.8 |
| 20260506082220 | 14 | 111 | 4.8 | 14.5 | 0.00 | 0.00 | 0.00 | 69 | 1009.1 |
| 20260506081718 | 13 | 78 | 4.8 | 14.5 | 0.00 | 0.00 | 0.00 | 69 | 1008.9 |
| 20260506081215 | 13 | 81 | 9.7 | 17.7 | 0.00 | 0.00 | 0.00 | 68 | 1009.2 |
| 20260506080713 | 13 | 80 | 8.0 | 16.1 | 0.00 | 0.00 | 0.00 | 70 | 1009.2 |
| 20260506080209 | 13 | 94 | 8.0 | 17.7 | 0.00 | 0.00 | 0.00 | 69 | 1009.2 |
| 20260506073154 | 12 | 65 | 11.3 | 16.1 | 0.00 | 0.00 | 0.00 | 72 | 1009.5 |
| 20260506072650 | 12 | 79 | 8.0 | 12.9 | 0.00 | 0.00 | 0.00 | 72 | 1009.2 |
| 20260506072148 | 12 | 92 | 11.3 | 17.7 | 0.00 | 0.00 | 0.00 | 72 | 1009.4 |
| 20260506071645 | 12 | 66 | 9.7 | 17.7 | 0.00 | 0.00 | 0.00 | 72 | 1009.5 |
| 20260506071143 | 12 | 63 | 6.4 | 12.9 | 0.00 | 0.00 | 0.00 | 74 | 1009.5 |
| 20260506070640 | 12 | 61 | 14.5 | 20.9 | 0.00 | 0.00 | 0.00 | 72 | 1009.4 |
| 20260506070137 | 12 | 56 | 9.7 | 12.9 | 0.00 | 0.00 | 0.00 | 73 | 1009.5 |
| 20260506062114 | 11 | 69 | 8.0 | 14.5 | 0.00 | 0.00 | 0.00 | 77 | 1009.7 |
| 20260506061609 | 11 | 60 | 8.0 | 16.1 | 0.00 | 0.00 | 0.00 | 79 | 1009.9 |
| 20260506061108 | 11 | 44 | 6.4 | 16.1 | 0.00 | 0.00 | 0.00 | 79 | 1009.7 |
| 20260506060606 | 10 | 42 | 8.0 | 11.3 | 0.00 | 0.00 | 0.00 | 81 | 1009.9 |
| 20260506051035 | 10 | 50 | 3.2 | 17.7 | 0.00 | 0.00 | 0.00 | 85 | 1009.8 |
| 20260506050532 | 10 | 7 | 9.7 | 16.1 | 0.00 | 0.00 | 0.00 | 85 | 1009.8 |
| 20260506045023 | 10 | 72 | 4.8 | 12.9 | 0.00 | 0.00 | 0.00 | 87 | 1009.8 |
| 20260506044521 | 10 | 75 | 6.4 | 16.1 | 0.00 | 0.00 | 0.00 | 87 | 1009.8 |
| 20260506044018 | 9 | 65 | 4.8 | 16.1 | 0.00 | 0.00 | 0.00 | 88 | 1009.7 |
| 20260506043515 | 9 | 66 | 8.0 | 12.9 | 0.00 | 0.00 | 0.00 | 89 | 1009.5 |
| 20260506043013 | 9 | 64 | 4.8 | 12.9 | 0.00 | 0.00 | 0.00 | 89 | 1009.6 |
| 20260506042512 | 9 | 53 | 6.4 | 11.3 | 0.00 | 0.00 | 0.00 | 89 | 1009.8 |
| 20260506042009 | 8 | 47 | 6.4 | 11.3 | 0.00 | 0.00 | 0.00 | 89 | 1009.7 |
| 20260506041508 | 8 | 30 | 4.8 | 11.3 | 0.00 | 0.00 | 0.00 | 89 | 1009.5 |
| 20260506041004 | 8 | 63 | 12.9 | 17.7 | 0.00 | 0.00 | 0.00 | 89 | 1009.6 |
| 20260506040502 | 8 | 90 | 4.8 | 11.3 | 0.00 | 0.00 | 0.00 | 89 | 1009.7 |
| 20260506035957 | 8 | 69 | 4.8 | 11.3 | 0.00 | 0.00 | 0.00 | 89 | 1009.6 |
| 20260506035455 | 8 | 69 | 6.4 | 12.9 | 0.00 | 0.00 | 0.00 | 89 | 1009.7 |
| 20260506034951 | 8 | 52 | 3.2 | 11.3 | 0.00 | 0.00 | 0.00 | 89 | 1009.6 |
| 20260506034449 | 8 | 50 | 9.7 | 12.9 | 0.00 | 0.00 | 0.00 | 88 | 1009.6 |
| 20260506033946 | 8 | 38 | 4.8 | 9.7 | 0.00 | 0.00 | 0.00 | 88 | 1009.6 |
| 20260506033443 | 8 | 42 | 8.0 | 12.9 | 0.00 | 0.00 | 0.00 | 88 | 1009.5 |
| 20260506032939 | 8 | 77 | 6.4 | 12.9 | 0.00 | 0.00 | 0.00 | 88 | 1009.6 |
| 20260506032437 | 8 | 85 | 6.4 | 9.7 | 0.00 | 0.00 | 0.00 | 88 | 1009.5 |
| 20260506031933 | 8 | 70 | 4.8 | 11.3 | 0.00 | 0.00 | 0.00 | 88 | 1009.5 |
| 20260506031431 | 8 | 62 | 6.4 | 12.9 | 0.00 | 0.00 | 0.00 | 88 | 1009.6 |
| 20260506030929 | 8 | 53 | 1.6 | 9.7 | 0.00 | 0.00 | 0.00 | 88 | 1009.4 |
| 20260506030426 | 8 | 73 | 3.2 | 11.3 | 0.00 | 0.00 | 0.00 | 88 | 1009.3 |
| 20260506025923 | 8 | 57 | 4.8 | 11.3 | 0.00 | 0.00 | 0.00 | 88 | 1009.5 |
| 20260506025420 | 8 | 68 | 0.0 | 9.7 | 0.00 | 0.00 | 0.00 | 88 | 1009.5 |
| 20260506024916 | 8 | 46 | 6.4 | 11.3 | 0.00 | 0.00 | 0.00 | 88 | 1009.2 |
| 20260506024414 | 8 | 90 | 3.2 | 4.8 | 0.00 | 0.00 | 0.00 | 88 | 1009.3 |
| 20260506023909 | 8 | 64 | 3.2 | 6.4 | 0.00 | 0.00 | 0.00 | 87 | 1009.2 |
| 20260506023407 | 8 | 88 | 6.4 | 16.1 | 0.00 | 0.00 | 0.00 | 87 | 1009.3 |
| 20260506022903 | 8 | 39 | 8.0 | 9.7 | 0.00 | 0.00 | 0.00 | 87 | 1009.3 |
| 20260506022401 | 8 | 38 | 3.2 | 9.7 | 0.00 | 0.00 | 0.00 | 87 | 1009.4 |
| 20260506021859 | 8 | 53 | 6.4 | 9.7 | 0.00 | 0.00 | 0.00 | 87 | 1009.3 |
| 20260506021355 | 8 | 84 | 8.0 | 9.7 | 0.00 | 0.00 | 0.00 | 87 | 1008.9 |
| 20260506020852 | 8 | 7 | 3.2 | 9.7 | 0.00 | 0.00 | 0.00 | 88 | 1009.2 |
| 20260506020350 | 8 | 38 | 4.8 | 9.7 | 0.00 | 0.00 | 0.00 | 87 | 1009.2 |
| 20260506015847 | 8 | 45 | 1.6 | 6.4 | 0.00 | 0.00 | 0.00 | 87 | 1009.1 |
| 20260506015345 | 8 | 69 | 3.2 | 6.4 | 0.00 | 0.00 | 0.00 | 87 | 1009.1 |
| 20260506014841 | 8 | 53 | 3.2 | 9.7 | 0.00 | 0.00 | 0.00 | 86 | 1009.1 |
| 20260506014338 | 8 | 55 | 6.4 | 12.9 | 0.00 | 0.00 | 0.00 | 86 | 1009.2 |
| 20260506013835 | 8 | 63 | 3.2 | 6.4 | 0.00 | 0.00 | 0.00 | 87 | 1008.9 |
| 20260506013333 | 8 | 57 | 3.2 | 6.4 | 0.00 | 0.00 | 0.00 | 87 | 1009.1 |
| 20260506012829 | 9 | 83 | 1.6 | 9.7 | 0.00 | 0.00 | 0.00 | 86 | 1009.2 |
| 20260506012326 | 9 | 68 | 1.6 | 12.9 | 0.00 | 0.00 | 0.00 | 85 | 1009.3 |
| 20260506011823 | 9 | 20 | 12.9 | 14.5 | 0.00 | 0.00 | 0.00 | 84 | 1009.4 |
| 20260506011319 | 10 | 24 | 4.8 | 6.4 | 0.00 | 0.00 | 0.00 | 83 | 1009.3 |
| 20260506010817 | 10 | 56 | 8.0 | 11.3 | 0.00 | 0.00 | 0.00 | 83 | 1009.3 |
| 20260506010315 | 10 | 356 | 4.8 | 6.4 | 0.00 | 0.00 | 0.00 | 82 | 1009.3 |
| 20260506005812 | 10 | 72 | 4.8 | 6.4 | 0.00 | 0.00 | 0.00 | 81 | 1009.4 |
| 20260506005308 | 10 | 8 | 3.2 | 6.4 | 0.00 | 0.00 | 0.00 | 80 | 1009.1 |
| 20260506004805 | 10 | 64 | 3.2 | 6.4 | 0.00 | 0.00 | 0.00 | 80 | 1008.9 |
| 20260506004302 | 10 | 31 | 3.2 | 4.8 | 0.00 | 0.00 | 0.00 | 80 | 1008.6 |
| 20260506003758 | 10 | 28 | 3.2 | 9.7 | 0.00 | 0.00 | 0.00 | 80 | 1008.6 |
| 20260506003254 | 10 | 74 | 1.6 | 4.8 | 0.00 | 0.00 | 0.00 | 79 | 1008.7 |
| 20260506002751 | 10 | 49 | 4.8 | 4.8 | 0.00 | 0.00 | 0.00 | 79 | 1008.6 |
| 20260506002247 | 10 | 32 | 3.2 | 6.4 | 0.00 | 0.00 | 0.00 | 80 | 1008.6 |
| 20260506001743 | 10 | 78 | 0.0 | 3.2 | 0.00 | 0.00 | 0.00 | 79 | 1008.8 |
| 20260506001241 | 10 | 82 | 0.0 | 4.8 | 0.00 | 0.00 | 0.00 | 78 | 1008.9 |
| 20260506000737 | 10 | 63 | 3.2 | 3.2 | 0.00 | 0.00 | 0.00 | 77 | 1008.8 |
| 20260506000235 | 11 | 26 | 1.6 | 4.8 | 0.00 | 0.00 | 0.00 | 77 | 1008.8 |
| 20260505235732 | 11 | 79 | 1.6 | 3.2 | 0.00 | 0.00 | 0.00 | 77 | 1008.7 |
| 20260505235230 | 11 | 67 | 3.2 | 4.8 | 0.00 | 0.00 | 0.00 | 78 | 1008.7 |
| 20260505234726 | 11 | 59 | 0.0 | 4.8 | 0.00 | 0.00 | 0.00 | 78 | 1008.7 |
| 20260505234224 | 11 | 79 | 0.0 | 4.8 | 0.00 | 0.00 | 0.00 | 79 | 1008.8 |
| 20260505233720 | 11 | 4 | 3.2 | 3.2 | 0.00 | 0.00 | 0.00 | 79 | 1008.6 |
| 20260505233218 | 11 | 52 | 1.6 | 3.2 | 0.00 | 0.00 | 0.00 | 78 | 1009.2 |
| 20260505232715 | 11 | 20 | 1.6 | 4.8 | 0.00 | 0.00 | 0.00 | 78 | 1008.9 |
| 20260505232212 | 11 | 330 | 4.8 | 9.7 | 0.00 | 0.00 | 0.00 | 78 | 1009.1 |
| 20260505231709 | 11 | 52 | 3.2 | 4.8 | 0.00 | 0.00 | 0.00 | 78 | 1008.8 |
| 20260505231208 | 11 | 7 | 3.2 | 4.8 | 0.00 | 0.00 | 0.00 | 76 | 1008.8 |
| 20260505230706 | 11 | 29 | 3.2 | 4.8 | 0.00 | 0.00 | 0.00 | 75 | 1008.7 |
| 20260505230202 | 11 | 78 | 3.2 | 6.4 | 0.00 | 0.00 | 0.00 | 76 | 1008.8 |
| 20260505225658 | 11 | 70 | 3.2 | 4.8 | 0.00 | 0.00 | 0.00 | 77 | 1008.5 |
| 20260505225155 | 11 | 60 | 1.6 | 4.8 | 0.00 | 0.00 | 0.00 | 78 | 1008.4 |
| 20260505224650 | 11 | 67 | 3.2 | 4.8 | 0.00 | 0.00 | 0.00 | 79 | 1008.4 |
| 20260505224144 | 11 | 63 | 3.2 | 4.8 | 0.00 | 0.00 | 0.00 | 79 | 1008.5 |
| 20260505223641 | 11 | 52 | 1.6 | 4.8 | 0.00 | 0.00 | 0.00 | 79 | 1008.5 |
| 20260505223136 | 11 | 63 | 4.8 | 4.8 | 0.00 | 0.00 | 0.00 | 79 | 1008.5 |
| 20260505222632 | 11 | 42 | 4.8 | 11.3 | 0.00 | 0.00 | 0.00 | 80 | 1008.7 |
| 20260505222128 | 11 | 51 | 4.8 | 9.7 | 0.00 | 0.00 | 0.00 | 81 | 1008.9 |
| 20260505221625 | 11 | 19 | 4.8 | 9.7 | 0.00 | 0.00 | 0.00 | 82 | 1008.9 |
| 20260505221122 | 11 | 350 | 4.8 | 6.4 | 0.00 | 0.00 | 0.00 | 82 | 1008.9 |
| 20260505220620 | 11 | 64 | 1.6 | 4.8 | 0.00 | 0.00 | 0.00 | 82 | 1008.6 |
| 20260505220117 | 11 | 36 | 1.6 | 4.8 | 0.00 | 0.00 | 0.00 | 82 | 1008.7 |
| 20260505215615 | 11 | 56 | 1.6 | 4.8 | 0.00 | 0.00 | 0.00 | 82 | 1008.6 |
| 20260505215113 | 11 | 59 | 3.2 | 4.8 | 0.00 | 0.00 | 0.00 | 81 | 1008.6 |
| 20260505214611 | 11 | 80 | 3.2 | 6.4 | 0.00 | 0.00 | 0.00 | 81 | 1008.7 |
| 20260505214107 | 11 | 66 | 3.2 | 3.2 | 0.00 | 0.00 | 0.00 | 81 | 1008.7 |
| 20260505213605 | 11 | 65 | 1.6 | 3.2 | 0.00 | 0.00 | 0.00 | 81 | 1008.7 |
| 20260505213101 | 11 | 57 | 3.2 | 9.7 | 0.00 | 0.00 | 0.00 | 80 | 1008.8 |
| 20260505212557 | 11 | 67 | 0.0 | 6.4 | 0.00 | 0.00 | 0.00 | 80 | 1008.5 |
| 20260505212055 | 12 | 29 | 6.4 | 9.7 | 0.00 | 0.00 | 0.00 | 80 | 1008.9 |
| 20260505211552 | 12 | 33 | 8.0 | 11.3 | 0.00 | 0.00 | 0.00 | 81 | 1008.8 |
| 20260505211049 | 12 | 81 | 3.2 | 9.7 | 0.00 | 0.00 | 0.00 | 81 | 1008.7 |
| 20260505210545 | 12 | 14 | 6.4 | 11.3 | 0.00 | 0.00 | 0.00 | 82 | 1008.8 |
| 20260505210043 | 12 | 55 | 9.7 | 14.5 | 0.00 | 0.00 | 0.00 | 83 | 1008.7 |
| 20260505205540 | 12 | 293 | 6.4 | 12.9 | 0.00 | 0.18 | 0.18 | 84 | 1008.6 |
| 20260505205038 | 12 | 323 | 8.0 | 14.5 | 0.00 | 0.18 | 0.18 | 84 | 1008.7 |
| 20260505204535 | 12 | 11 | 8.0 | 14.5 | 0.00 | 0.18 | 0.18 | 84 | 1008.5 |
| 20260505204032 | 12 | 268 | 14.5 | 17.7 | 0.00 | 0.18 | 0.18 | 83 | 1008.4 |
| 20260505203529 | 12 | 72 | 0.0 | 1.6 | 0.00 | 0.18 | 0.18 | 81 | 1007.7 |
| 20260505203026 | 12 | 83 | 0.0 | 1.6 | 0.00 | 0.18 | 0.18 | 81 | 1007.4 |
| 20260505202522 | 12 | 91 | 4.8 | 4.8 | 0.00 | 0.18 | 0.18 | 82 | 1007.5 |
| 20260505202018 | 12 | 86 | 3.2 | 11.3 | 0.00 | 0.18 | 0.18 | 82 | 1007.3 |